{"data":{"norad_id":47178,"epoch":"2026-05-24T18:34:30.861984Z","epoch_age_seconds":87727,"freshness":"FRESH","line1":"1 47178U 20088BJ  26144.77396831  .00075433  00000+0  62461-3 0  9999","line2":"2 47178  53.0457 268.8095 0002700  46.5533 313.5707 15.69596987304026","mean_motion":15.69596987,"eccentricity":0.00027,"inclination_deg":53.0457,"raan_deg":268.8095,"arg_perigee_deg":46.5533,"mean_anomaly_deg":313.5707,"bstar":0.00062461,"rev_number":30402,"period_min":91.743295376242,"perigee_km":358.23085923505,"apogee_km":361.86948030673,"semimajor_km":6738.1871697709,"source":"CELESTRAK","updated_at":"2026-05-25T13:38:16.522994Z"}}